Time,TemperatureF,DewpointF,PressureIn,WindDirection,WindDirectionDegrees,WindSpeedMPH,WindSpeedGustMPH,Humidity,HourlyPrecipIn,Conditions,Clouds,dailyrainin,SoftwareType,DateUTC
2013-08-03 00:00:00,71.3,67.6,29.97,WSW,240,4.0,8.0,88,0.00,,,0.00,Wunderground v.1.15,2013-08-03 05:00:00,
2013-08-03 00:10:00,71.3,67.9,29.97,WSW,240,5.0,5.0,89,0.00,,,0.01,Wunderground v.1.15,2013-08-03 05:10:00,
2013-08-03 00:15:00,71.3,67.9,29.97,WSW,240,4.0,5.0,89,0.00,,,0.01,Wunderground v.1.15,2013-08-03 05:15:00,
2013-08-03 00:20:00,71.2,67.8,29.97,WSW,240,4.0,4.0,89,0.00,,,0.01,Wunderground v.1.15,2013-08-03 05:20:00,
2013-08-03 00:30:00,71.1,67.7,29.97,WSW,240,3.0,3.0,89,0.00,,,0.02,Wunderground v.1.15,2013-08-03 05:30:00,
2013-08-03 00:35:00,71.0,67.6,29.97,WSW,240,3.0,3.0,89,0.00,,,0.02,Wunderground v.1.15,2013-08-03 05:35:00,
2013-08-03 00:45:00,70.9,67.5,29.98,WSW,240,2.0,2.0,89,0.00,,,0.02,Wunderground v.1.15,2013-08-03 05:45:00,
2013-08-03 00:50:00,70.9,67.8,29.98,WSW,240,2.0,2.0,90,0.00,,,0.02,Wunderground v.1.15,2013-08-03 05:50:00,
2013-08-03 00:55:00,70.8,67.7,29.97,WSW,240,2.0,3.0,90,0.00,,,0.02,Wunderground v.1.15,2013-08-03 05:55:00,
2013-08-03 01:05:00,70.9,67.8,29.98,WNW,283,2.0,4.0,90,0.00,,,0.02,Wunderground v.1.15,2013-08-03 06:05:00,
2013-08-03 01:10:00,71.0,67.9,29.98,NW,304,3.0,7.0,90,0.72,,,0.07,Wunderground v.1.15,2013-08-03 06:10:00,
2013-08-03 01:20:00,70.7,67.3,29.98,NW,308,6.0,8.0,89,0.36,,,0.23,Wunderground v.1.15,2013-08-03 06:20:00,
2013-08-03 01:25:00,70.4,67.0,29.98,NW,309,6.0,8.0,89,0.98,,,0.26,Wunderground v.1.15,2013-08-03 06:25:00,
2013-08-03 01:30:00,70.3,67.2,29.98,West,278,6.0,6.0,90,0.41,,,0.31,Wunderground v.1.15,2013-08-03 06:30:00,
2013-08-03 01:40:00,70.1,67.0,29.98,West,279,4.0,4.0,90,0.18,,,0.35,Wunderground v.1.15,2013-08-03 06:40:00,
2013-08-03 01:45:00,69.9,66.8,29.98,West,263,4.0,5.0,90,0.10,,,0.36,Wunderground v.1.15,2013-08-03 06:45:00,
2013-08-03 01:50:00,69.9,66.8,29.98,West,259,4.0,4.0,90,0.58,,,0.45,Wunderground v.1.15,2013-08-03 06:50:00,
2013-08-03 02:00:00,69.7,66.6,29.97,West,270,4.0,4.0,90,0.09,,,0.47,Wunderground v.1.15,2013-08-03 07:00:00,
2013-08-03 02:05:00,69.7,66.6,29.97,West,279,4.0,5.0,90,0.05,,,0.47,Wunderground v.1.15,2013-08-03 07:05:00,
2013-08-03 02:15:00,69.6,66.9,29.97,WNW,284,5.0,5.0,91,1.43,,,0.54,Wunderground v.1.15,2013-08-03 07:15:00,
2013-08-03 02:20:00,69.6,66.5,29.97,WNW,296,4.0,5.0,90,0.33,,,0.59,Wunderground v.1.15,2013-08-03 07:20:00,
2013-08-03 02:25:00,69.5,66.4,29.97,WNW,297,4.0,5.0,90,0.61,,,0.63,Wunderground v.1.15,2013-08-03 07:25:00,
2013-08-03 02:35:00,69.4,66.3,29.97,WNW,302,2.0,4.0,90,0.08,,,0.64,Wunderground v.1.15,2013-08-03 07:35:00,
2013-08-03 02:40:00,69.3,66.2,29.97,WNW,302,3.0,3.0,90,0.05,,,0.64,Wunderground v.1.15,2013-08-03 07:40:00,
2013-08-03 02:50:00,69.2,66.5,29.97,WNW,302,1.0,1.0,91,0.00,,,0.64,Wunderground v.1.15,2013-08-03 07:50:00,
2013-08-03 02:55:00,69.2,66.5,29.97,WNW,303,0.0,1.0,91,0.00,,,0.64,Wunderground v.1.15,2013-08-03 07:55:00,
2013-08-03 03:00:00,69.2,66.5,29.97,WNW,302,0.0,0.0,91,0.00,,,0.64,Wunderground v.1.15,2013-08-03 08:00:00,
2013-08-03 03:10:00,69.1,66.4,29.98,WNW,302,1.0,3.0,91,0.00,,,0.64,Wunderground v.1.15,2013-08-03 08:10:00,
2013-08-03 03:15:00,69.1,66.4,29.98,WNW,302,2.0,3.0,91,0.00,,,0.65,Wunderground v.1.15,2013-08-03 08:15:00,
2013-08-03 03:25:00,69.0,66.3,29.98,WNW,303,1.0,2.0,91,0.00,,,0.65,Wunderground v.1.15,2013-08-03 08:25:00,
2013-08-03 03:30:00,69.0,66.3,29.98,WNW,302,0.0,0.0,91,0.00,,,0.65,Wunderground v.1.15,2013-08-03 08:30:00,
2013-08-03 03:35:00,68.9,66.2,29.98,WNW,302,0.0,0.0,91,0.00,,,0.65,Wunderground v.1.15,2013-08-03 08:35:00,
2013-08-03 03:45:00,68.9,66.2,29.97,WNW,302,0.0,0.0,91,0.00,,,0.65,Wunderground v.1.15,2013-08-03 08:45:00,
2013-08-03 03:50:00,68.9,66.2,29.97,WNW,302,0.0,0.0,91,0.00,,,0.65,Wunderground v.1.15,2013-08-03 08:50:00,
2013-08-03 04:00:00,68.8,66.1,29.97,WNW,302,0.0,0.0,91,0.00,,,0.65,Wunderground v.1.15,2013-08-03 09:00:00,
2013-08-03 04:05:00,68.8,66.1,29.97,WNW,302,0.0,0.0,91,0.00,,,0.65,Wunderground v.1.15,2013-08-03 09:05:00,
2013-08-03 04:15:00,68.8,66.1,29.96,WNW,302,0.0,0.0,91,0.00,,,0.65,Wunderground v.1.15,2013-08-03 09:15:00,
2013-08-03 04:20:00,68.8,66.1,29.96,WNW,302,0.0,0.0,91,0.00,,,0.65,Wunderground v.1.15,2013-08-03 09:20:00,
2013-08-03 04:25:00,68.7,66.0,29.96,WNW,302,0.0,0.0,91,0.00,,,0.65,Wunderground v.1.15,2013-08-03 09:25:00,
2013-08-03 04:30:00,68.7,66.0,29.97,WNW,303,0.0,0.0,91,0.00,,,0.65,Wunderground v.1.15,2013-08-03 09:30:00,
2013-08-03 04:40:00,68.6,65.9,29.97,WNW,303,0.0,0.0,91,0.00,,,0.65,Wunderground v.1.15,2013-08-03 09:40:00,
2013-08-03 04:45:00,68.6,65.9,29.97,WNW,302,0.0,0.0,91,0.00,,,0.65,Wunderground v.1.15,2013-08-03 09:45:00,
2013-08-03 04:55:00,68.5,65.8,29.98,WNW,302,0.0,0.0,91,0.00,,,0.65,Wunderground v.1.15,2013-08-03 09:55:00,
2013-08-03 05:00:00,68.5,65.8,29.98,WNW,302,0.0,0.0,91,0.00,,,0.65,Wunderground v.1.15,2013-08-03 10:00:00,
2013-08-03 05:05:00,68.5,65.8,29.98,WNW,302,0.0,0.0,91,0.00,,,0.65,Wunderground v.1.15,2013-08-03 10:05:00,
2013-08-03 05:15:00,68.5,65.8,29.98,WNW,303,0.0,0.0,91,0.00,,,0.65,Wunderground v.1.15,2013-08-03 10:15:00,
2013-08-03 05:20:00,68.4,65.7,29.98,WNW,303,0.0,0.0,91,0.00,,,0.65,Wunderground v.1.15,2013-08-03 10:20:00,
2013-08-03 05:30:00,68.3,65.6,29.98,WNW,302,0.0,0.0,91,0.00,,,0.65,Wunderground v.1.15,2013-08-03 10:30:00,
2013-08-03 05:35:00,68.2,65.5,29.98,WNW,302,0.0,0.0,91,0.00,,,0.65,Wunderground v.1.15,2013-08-03 10:35:00,
2013-08-03 05:40:00,68.2,65.5,29.98,WNW,303,0.0,0.0,91,0.00,,,0.65,Wunderground v.1.15,2013-08-03 10:40:00,
2013-08-03 05:50:00,68.2,65.5,29.98,WNW,303,0.0,0.0,91,0.00,,,0.65,Wunderground v.1.15,2013-08-03 10:50:00,
2013-08-03 05:55:00,68.1,65.4,29.98,WNW,302,0.0,0.0,91,0.00,,,0.65,Wunderground v.1.15,2013-08-03 10:55:00,
2013-08-03 06:05:00,68.1,65.4,29.99,NW,309,0.0,0.0,91,0.00,,,0.65,Wunderground v.1.15,2013-08-03 11:05:00,
2013-08-03 06:10:00,68.1,65.4,29.99,NW,309,0.0,0.0,91,0.00,,,0.65,Wunderground v.1.15,2013-08-03 11:10:00,
2013-08-03 06:15:00,68.1,65.4,29.99,NW,309,0.0,0.0,91,0.00,,,0.65,Wunderground v.1.15,2013-08-03 11:15:00,
2013-08-03 06:25:00,67.9,65.2,29.99,NW,309,0.0,0.0,91,0.00,,,0.65,Wunderground v.1.15,2013-08-03 11:25:00,
2013-08-03 06:30:00,67.7,65.0,29.99,NW,309,0.0,0.0,91,0.00,,,0.65,Wunderground v.1.15,2013-08-03 11:30:00,
2013-08-03 06:40:00,67.6,64.9,29.99,NW,309,0.0,0.0,91,0.00,,,0.65,Wunderground v.1.15,2013-08-03 11:40:00,
2013-08-03 06:45:00,67.6,64.9,30.00,NW,309,0.0,0.0,91,0.00,,,0.65,Wunderground v.1.15,2013-08-03 11:45:00,
2013-08-03 06:50:00,67.6,64.9,30.00,NW,309,0.0,0.0,91,0.00,,,0.65,Wunderground v.1.15,2013-08-03 11:50:00,
2013-08-03 07:00:00,67.8,65.4,30.00,NW,309,0.0,0.0,92,0.00,,,0.65,Wunderground v.1.15,2013-08-03 12:00:00,
2013-08-03 07:05:00,67.8,65.4,30.00,NW,311,0.0,0.0,92,0.00,,,0.65,Wunderground v.1.15,2013-08-03 12:05:00,
2013-08-03 07:15:00,67.9,65.5,30.01,NW,309,1.0,1.0,92,0.00,,,0.65,Wunderground v.1.15,2013-08-03 12:15:00,
2013-08-03 07:20:00,67.9,65.5,30.01,NW,308,1.0,1.0,92,0.00,,,0.65,Wunderground v.1.15,2013-08-03 12:20:00,
2013-08-03 07:25:00,68.1,65.7,30.02,NW,308,0.0,1.0,92,0.00,,,0.65,Wunderground v.1.15,2013-08-03 12:25:00,
2013-08-03 07:35:00,68.5,66.1,30.01,NW,308,0.0,0.0,92,0.00,,,0.65,Wunderground v.1.15,2013-08-03 12:35:00,
2013-08-03 07:40:00,68.7,66.3,30.01,NW,308,0.0,0.0,92,0.00,,,0.65,Wunderground v.1.15,2013-08-03 12:40:00,
2013-08-03 07:50:00,69.2,66.8,30.01,NW,308,0.0,0.0,92,0.00,,,0.65,Wunderground v.1.15,2013-08-03 12:50:00,
2013-08-03 07:55:00,69.5,67.1,30.01,NW,308,0.0,0.0,92,0.00,,,0.65,Wunderground v.1.15,2013-08-03 12:55:00,
2013-08-03 08:00:00,69.9,67.5,30.01,NW,308,0.0,0.0,92,0.00,,,0.65,Wunderground v.1.15,2013-08-03 13:00:00,
2013-08-03 08:10:00,70.7,68.3,30.01,NW,308,0.0,0.0,92,0.00,,,0.65,Wunderground v.1.15,2013-08-03 13:10:00,
2013-08-03 08:15:00,71.2,68.8,30.01,NW,309,0.0,2.0,92,0.00,,,0.65,Wunderground v.1.15,2013-08-03 13:15:00,
2013-08-03 08:25:00,71.9,68.8,30.01,NW,309,1.0,2.0,90,0.00,,,0.65,Wunderground v.1.15,2013-08-03 13:25:00,
2013-08-03 08:30:00,72.4,69.0,30.01,NW,309,1.0,1.0,89,0.00,,,0.65,Wunderground v.1.15,2013-08-03 13:30:00,
2013-08-03 08:35:00,72.8,68.7,30.01,NW,309,0.0,1.0,87,0.00,,,0.65,Wunderground v.1.15,2013-08-03 13:35:00,
2013-08-03 08:45:00,73.7,68.9,30.01,NW,311,2.0,2.0,85,0.00,,,0.65,Wunderground v.1.15,2013-08-03 13:45:00,
2013-08-03 08:50:00,74.2,68.7,30.02,NW,314,2.0,5.0,83,0.00,,,0.65,Wunderground v.1.15,2013-08-03 13:50:00,
2013-08-03 09:00:00,74.8,68.9,30.02,NW,315,3.0,6.0,82,0.00,,,0.65,Wunderground v.1.15,2013-08-03 14:00:00,
2013-08-03 09:05:00,75.0,68.4,30.02,NW,323,3.0,6.0,80,0.00,,,0.65,Wunderground v.1.15,2013-08-03 14:05:00,
2013-08-03 09:10:00,75.1,68.9,30.02,NW,315,3.0,3.0,81,0.00,,,0.65,Wunderground v.1.15,2013-08-03 14:10:00,
2013-08-03 09:15:00,75.4,68.8,30.02,NW,313,2.0,4.0,80,0.00,,,0.65,Wunderground v.1.15,2013-08-03 14:15:00,
2013-08-03 09:25:00,76.3,68.6,30.02,NNW,332,3.0,3.0,77,0.00,,,0.65,Wunderground v.1.15,2013-08-03 14:25:00,
2013-08-03 09:30:00,76.9,69.5,30.02,NNW,340,3.0,3.0,78,0.00,,,0.65,Wunderground v.1.15,2013-08-03 14:30:00,
2013-08-03 09:40:00,78.2,69.6,30.02,NNW,333,2.0,2.0,75,0.00,,,0.65,Wunderground v.1.15,2013-08-03 14:40:00,
2013-08-03 09:45:00,78.8,69.0,30.01,NNW,341,3.0,3.0,72,0.00,,,0.65,Wunderground v.1.15,2013-08-03 14:45:00,
2013-08-03 09:55:00,79.9,69.2,30.02,NNW,327,2.0,3.0,70,0.00,,,0.65,Wunderground v.1.15,2013-08-03 14:55:00,
2013-08-03 10:00:00,80.3,69.6,30.02,NNW,340,2.0,3.0,70,0.00,,,0.65,Wunderground v.1.15,2013-08-03 15:00:00,
2013-08-03 10:05:00,80.6,68.2,30.03,NW,311,3.0,4.0,66,0.00,,,0.65,Wunderground v.1.15,2013-08-03 15:05:00,
2013-08-03 10:15:00,81.2,67.9,30.03,NW,312,3.0,3.0,64,0.00,,,0.65,Wunderground v.1.15,2013-08-03 15:15:00,
2013-08-03 10:20:00,81.5,69.0,30.03,NW,324,3.0,5.0,66,0.00,,,0.65,Wunderground v.1.15,2013-08-03 15:20:00,
2013-08-03 10:30:00,82.7,70.2,30.04,WNW,302,3.0,7.0,66,0.00,,,0.65,Wunderground v.1.15,2013-08-03 15:30:00,
2013-08-03 10:35:00,83.2,69.3,30.04,NW,308,4.0,7.0,63,0.00,,,0.65,Wunderground v.1.15,2013-08-03 15:35:00,
2013-08-03 10:40:00,83.6,69.2,30.03,NW,314,4.0,4.0,62,0.00,,,0.65,Wunderground v.1.15,2013-08-03 15:40:00,
2013-08-03 10:50:00,84.3,69.9,30.04,NNW,327,1.0,3.0,62,0.00,,,0.65,Wunderground v.1.15,2013-08-03 15:50:00,
2013-08-03 10:55:00,84.8,69.4,30.04,NNW,332,2.0,3.0,60,0.00,,,0.65,Wunderground v.1.15,2013-08-03 15:55:00,
2013-08-03 11:05:00,85.3,68.8,30.04,NW,321,3.0,3.0,58,0.00,,,0.65,Wunderground v.1.15,2013-08-03 16:05:00,
2013-08-03 11:10:00,85.6,68.6,30.05,NW,304,2.0,5.0,57,0.00,,,0.65,Wunderground v.1.15,2013-08-03 16:10:00,
2013-08-03 11:15:00,85.8,69.3,30.05,WNW,290,3.0,5.0,58,0.00,,,0.65,Wunderground v.1.15,2013-08-03 16:15:00,
2013-08-03 11:25:00,86.1,68.0,30.05,NNW,339,3.0,6.0,55,0.00,,,0.65,Wunderground v.1.15,2013-08-03 16:25:00,
2013-08-03 11:30:00,86.3,67.7,30.06,WNW,300,4.0,4.0,54,0.00,,,0.65,Wunderground v.1.15,2013-08-03 16:30:00,
2013-08-03 11:40:00,86.7,68.1,30.05,WNW,302,3.0,4.0,54,0.00,,,0.65,Wunderground v.1.15,2013-08-03 16:40:00,
2013-08-03 11:45:00,86.8,68.7,30.05,NW,313,4.0,4.0,55,0.00,,,0.65,Wunderground v.1.15,2013-08-03 16:45:00,
2013-08-03 11:50:00,87.0,68.3,30.05,NW,319,2.0,2.0,54,0.00,,,0.65,Wunderground v.1.15,2013-08-03 16:50:00,
2013-08-03 12:00:00,87.5,69.3,30.06,NW,323,3.0,4.0,55,0.00,,,0.65,Wunderground v.1.15,2013-08-03 17:00:00,
2013-08-03 12:05:00,87.7,69.5,30.06,NNW,331,3.0,4.0,55,0.00,,,0.65,Wunderground v.1.15,2013-08-03 17:05:00,
2013-08-03 12:10:00,87.5,67.1,30.06,NW,311,2.0,2.0,51,0.00,,,0.65,Wunderground v.1.15,2013-08-03 17:10:00,
2013-08-03 12:20:00,87.5,66.6,30.06,NW,314,3.0,5.0,50,0.00,,,0.65,Wunderground v.1.15,2013-08-03 17:20:00,
2013-08-03 12:25:00,87.1,68.4,30.06,NW,304,5.0,5.0,54,0.00,,,0.65,Wunderground v.1.15,2013-08-03 17:25:00,
2013-08-03 12:35:00,86.8,67.1,30.06,NW,310,4.0,6.0,52,0.00,,,0.65,Wunderground v.1.15,2013-08-03 17:35:00,
2013-08-03 12:40:00,86.8,67.1,30.06,NW,324,4.0,4.0,52,0.00,,,0.65,Wunderground v.1.15,2013-08-03 17:40:00,
2013-08-03 12:45:00,87.0,67.2,30.06,WNW,302,4.0,6.0,52,0.00,,,0.65,Wunderground v.1.15,2013-08-03 17:45:00,
2013-08-03 12:55:00,87.4,67.1,30.05,NW,319,4.0,4.0,51,0.00,,,0.65,Wunderground v.1.15,2013-08-03 17:55:00,
2013-08-03 13:05:00,87.9,65.8,30.05,NW,305,2.0,2.0,48,0.00,,,0.65,Wunderground v.1.15,2013-08-03 18:05:00,
2013-08-03 13:10:00,88.2,67.2,30.06,WNW,293,3.0,6.0,50,0.00,,,0.65,Wunderground v.1.15,2013-08-03 18:10:00,
2013-08-03 13:15:00,88.5,66.9,30.06,NW,307,4.0,6.0,49,0.00,,,0.65,Wunderground v.1.15,2013-08-03 18:15:00,
2013-08-03 13:25:00,88.8,67.2,30.06,NW,304,3.0,6.0,49,0.00,,,0.65,Wunderground v.1.15,2013-08-03 18:25:00,
2013-08-03 13:30:00,88.8,66.0,30.05,NNW,337,3.0,3.0,47,0.00,,,0.65,Wunderground v.1.15,2013-08-03 18:30:00,
2013-08-03 13:35:00,88.7,66.5,30.05,NW,324,3.0,3.0,48,0.00,,,0.65,Wunderground v.1.15,2013-08-03 18:35:00,
2013-08-03 13:45:00,88.7,65.3,30.05,NW,308,5.0,10.0,46,0.00,,,0.65,Wunderground v.1.15,2013-08-03 18:45:00,
2013-08-03 13:50:00,88.4,65.0,30.05,NW,313,7.0,7.0,46,0.00,,,0.65,Wunderground v.1.15,2013-08-03 18:50:00,
2013-08-03 13:55:00,88.0,65.8,30.05,NW,311,7.0,7.0,48,0.00,,,0.65,Wunderground v.1.15,2013-08-03 18:55:00,
2013-08-03 14:05:00,87.4,66.5,30.05,NW,319,3.0,5.0,50,0.00,,,0.65,Wunderground v.1.15,2013-08-03 19:05:00,
2013-08-03 14:10:00,87.3,65.2,30.05,NW,309,4.0,6.0,48,0.00,,,0.65,Wunderground v.1.15,2013-08-03 19:10:00,
2013-08-03 14:20:00,87.2,64.5,30.05,NNE,15,5.0,6.0,47,0.00,,,0.65,Wunderground v.1.15,2013-08-03 19:20:00,
2013-08-03 14:25:00,87.1,65.6,30.05,NW,311,4.0,6.0,49,0.00,,,0.65,Wunderground v.1.15,2013-08-03 19:25:00,
2013-08-03 14:35:00,86.7,65.3,30.05,NNW,331,3.0,4.0,49,0.00,,,0.65,Wunderground v.1.15,2013-08-03 19:35:00,
2013-08-03 14:40:00,86.5,65.7,30.05,North,360,3.0,3.0,50,0.00,,,0.65,Wunderground v.1.15,2013-08-03 19:40:00,
2013-08-03 14:50:00,85.6,63.7,30.05,NW,313,3.0,6.0,48,0.00,,,0.65,Wunderground v.1.15,2013-08-03 19:50:00,
2013-08-03 14:55:00,85.0,63.1,30.05,NNW,331,2.0,6.0,48,0.00,,,0.65,Wunderground v.1.15,2013-08-03 19:55:00,
2013-08-03 15:00:00,84.7,66.2,30.05,NW,311,2.0,4.0,54,0.00,,,0.65,Wunderground v.1.15,2013-08-03 20:00:00,
2013-08-03 15:10:00,84.6,64.5,30.05,NW,321,5.0,5.0,51,0.00,,,0.65,Wunderground v.1.15,2013-08-03 20:10:00,
2013-08-03 15:15:00,84.4,64.3,30.04,North,5,4.0,5.0,51,0.00,,,0.65,Wunderground v.1.15,2013-08-03 20:15:00,
2013-08-03 15:25:00,83.8,64.3,30.04,NNW,341,2.0,4.0,52,0.00,,,0.65,Wunderground v.1.15,2013-08-03 20:25:00,
2013-08-03 15:30:00,83.4,61.7,30.04,NNW,334,3.0,3.0,48,0.00,,,0.65,Wunderground v.1.15,2013-08-03 20:30:00,
2013-08-03 15:35:00,83.0,62.4,30.05,NNW,331,4.0,4.0,50,0.00,,,0.65,Wunderground v.1.15,2013-08-03 20:35:00,
2013-08-03 15:45:00,82.6,62.1,30.05,NW,322,4.0,5.0,50,0.00,,,0.65,Wunderground v.1.15,2013-08-03 20:45:00,
2013-08-03 15:50:00,82.4,60.1,30.05,NW,326,3.0,6.0,47,0.00,,,0.65,Wunderground v.1.15,2013-08-03 20:50:00,
2013-08-03 16:00:00,82.3,60.6,30.05,NW,309,4.0,5.0,48,0.00,,,0.65,Wunderground v.1.15,2013-08-03 21:00:00,
2013-08-03 16:05:00,82.3,60.1,30.05,NW,309,4.0,7.0,47,0.00,,,0.65,Wunderground v.1.15,2013-08-03 21:05:00,
2013-08-03 16:10:00,82.2,60.6,30.05,NW,325,4.0,4.0,48,0.00,,,0.65,Wunderground v.1.15,2013-08-03 21:10:00,
2013-08-03 16:20:00,81.7,61.2,30.05,NW,323,4.0,4.0,50,0.00,,,0.65,Wunderground v.1.15,2013-08-03 21:20:00,
2013-08-03 16:25:00,81.6,60.6,30.05,NW,313,6.0,6.0,49,0.00,,,0.65,Wunderground v.1.15,2013-08-03 21:25:00,
2013-08-03 16:30:00,81.6,62.8,30.05,NNW,335,5.0,5.0,53,0.00,,,0.65,Wunderground v.1.15,2013-08-03 21:30:00,
2013-08-03 16:40:00,81.4,61.5,30.05,NW,319,5.0,5.0,51,0.00,,,0.65,Wunderground v.1.15,2013-08-03 21:40:00,
2013-08-03 16:45:00,81.2,59.6,30.05,NNW,331,4.0,5.0,48,0.00,,,0.65,Wunderground v.1.15,2013-08-03 21:45:00,
2013-08-03 16:55:00,80.9,59.9,30.05,North,11,4.0,4.0,49,0.00,,,0.65,Wunderground v.1.15,2013-08-03 21:55:00,
2013-08-03 17:00:00,80.7,60.3,30.05,NNW,333,3.0,7.0,50,0.00,,,0.65,Wunderground v.1.15,2013-08-03 22:00:00,
2013-08-03 17:10:00,80.5,59.0,30.06,NNW,331,4.0,5.0,48,0.00,,,0.65,Wunderground v.1.15,2013-08-03 22:10:00,
2013-08-03 17:15:00,80.4,60.1,30.06,NW,311,3.0,5.0,50,0.00,,,0.65,Wunderground v.1.15,2013-08-03 22:15:00,
2013-08-03 17:20:00,80.3,60.0,30.06,NNW,330,3.0,7.0,50,0.00,,,0.65,Wunderground v.1.15,2013-08-03 22:20:00,
2013-08-03 17:30:00,80.1,59.8,30.05,NNW,332,3.0,3.0,50,0.00,,,0.65,Wunderground v.1.15,2013-08-03 22:30:00,
2013-08-03 17:35:00,79.9,60.7,30.05,NNW,331,3.0,3.0,52,0.00,,,0.65,Wunderground v.1.15,2013-08-03 22:35:00,
2013-08-03 17:40:00,79.8,60.6,30.05,NW,310,3.0,7.0,52,0.00,,,0.65,Wunderground v.1.15,2013-08-03 22:40:00,
2013-08-03 17:50:00,79.7,60.0,30.05,NW,322,4.0,4.0,51,0.00,,,0.65,Wunderground v.1.15,2013-08-03 22:50:00,
2013-08-03 17:55:00,79.6,60.4,30.05,NW,309,2.0,4.0,52,0.00,,,0.65,Wunderground v.1.15,2013-08-03 22:55:00,
2013-08-03 18:05:00,79.5,59.8,30.06,NNW,329,3.0,6.0,51,0.00,,,0.65,Wunderground v.1.15,2013-08-03 23:05:00,
2013-08-03 18:10:00,79.6,59.9,30.06,NW,315,4.0,4.0,51,0.00,,,0.65,Wunderground v.1.15,2013-08-03 23:10:00,
2013-08-03 18:15:00,79.5,59.8,30.06,NNW,336,3.0,4.0,51,0.00,,,0.65,Wunderground v.1.15,2013-08-03 23:15:00,
2013-08-03 18:25:00,79.1,59.4,30.06,NNW,333,2.0,2.0,51,0.00,,,0.65,Wunderground v.1.15,2013-08-03 23:25:00,
2013-08-03 18:30:00,78.8,59.7,30.06,NNW,330,2.0,3.0,52,0.00,,,0.65,Wunderground v.1.15,2013-08-03 23:30:00,
2013-08-03 18:40:00,78.4,59.3,30.06,NNW,334,1.0,1.0,52,0.00,,,0.65,Wunderground v.1.15,2013-08-03 23:40:00,
2013-08-03 18:45:00,78.2,59.7,30.06,NW,323,1.0,2.0,53,0.00,,,0.65,Wunderground v.1.15,2013-08-03 23:45:00,
2013-08-03 18:50:00,77.9,59.9,30.06,NNW,329,1.0,1.0,54,0.00,,,0.65,Wunderground v.1.15,2013-08-03 23:50:00,
2013-08-03 19:00:00,77.5,60.1,30.06,NNW,330,1.0,1.0,55,0.00,,,0.65,Wunderground v.1.15,2013-08-04 00:00:00,
2013-08-03 19:05:00,77.3,59.9,30.06,NW,325,1.0,3.0,55,0.00,,,0.65,Wunderground v.1.15,2013-08-04 00:05:00,
2013-08-03 19:10:00,77.0,59.6,30.06,NNW,328,1.0,1.0,55,0.00,,,0.65,Wunderground v.1.15,2013-08-04 00:10:00,
2013-08-03 19:20:00,76.5,59.1,30.07,NW,324,1.0,1.0,55,0.00,,,0.65,Wunderground v.1.15,2013-08-04 00:20:00,
2013-08-03 19:25:00,76.1,59.3,30.07,NW,323,1.0,4.0,56,0.00,,,0.65,Wunderground v.1.15,2013-08-04 00:25:00,
2013-08-03 19:35:00,75.5,59.2,30.07,NW,323,1.0,1.0,57,0.00,,,0.65,Wunderground v.1.15,2013-08-04 00:35:00,
2013-08-03 19:40:00,75.0,59.2,30.06,NW,326,1.0,1.0,58,0.00,,,0.65,Wunderground v.1.15,2013-08-04 00:40:00,
2013-08-03 19:45:00,74.6,59.8,30.07,NW,326,1.0,1.0,60,0.00,,,0.65,Wunderground v.1.15,2013-08-04 00:45:00,
2013-08-03 19:55:00,73.7,59.9,30.07,NW,326,0.0,0.0,62,0.00,,,0.65,Wunderground v.1.15,2013-08-04 00:55:00,
2013-08-03 20:00:00,73.2,59.8,30.08,NW,326,0.0,1.0,63,0.00,,,0.65,Wunderground v.1.15,2013-08-04 01:00:00,
2013-08-03 20:05:00,72.8,59.9,30.08,NW,326,0.0,1.0,64,0.00,,,0.65,Wunderground v.1.15,2013-08-04 01:05:00,
2013-08-03 20:15:00,71.9,60.3,30.08,North,360,0.0,5.0,67,0.00,,,0.65,Wunderground v.1.15,2013-08-04 01:15:00,
2013-08-03 20:20:00,71.4,60.3,30.08,North,360,1.0,1.0,68,0.00,,,0.65,Wunderground v.1.15,2013-08-04 01:20:00,
2013-08-03 20:30:00,70.6,59.9,30.08,North,360,1.0,1.0,69,0.00,,,0.65,Wunderground v.1.15,2013-08-04 01:30:00,
2013-08-03 20:35:00,70.3,59.6,30.08,North,360,1.0,1.0,69,0.00,,,0.65,Wunderground v.1.15,2013-08-04 01:35:00,
2013-08-03 20:40:00,69.9,60.1,30.08,North,360,0.0,0.0,71,0.00,,,0.65,Wunderground v.1.15,2013-08-04 01:40:00,
2013-08-03 20:50:00,69.2,59.8,30.09,North,360,0.0,0.0,72,0.00,,,0.65,Wunderground v.1.15,2013-08-04 01:50:00,
2013-08-03 20:55:00,68.8,60.2,30.08,North,360,0.0,0.0,74,0.00,,,0.65,Wunderground v.1.15,2013-08-04 01:55:00,
2013-08-03 21:05:00,68.1,59.5,30.09,North,360,0.0,0.0,74,0.00,,,0.65,Wunderground v.1.15,2013-08-04 02:05:00,
2013-08-03 21:10:00,67.8,59.2,30.09,North,360,0.0,0.0,74,0.00,,,0.65,Wunderground v.1.15,2013-08-04 02:10:00,
2013-08-03 21:15:00,67.5,58.9,30.09,North,360,0.0,0.0,74,0.00,,,0.65,Wunderground v.1.15,2013-08-04 02:15:00,
2013-08-03 21:25:00,66.9,58.3,30.10,North,360,0.0,0.0,74,0.00,,,0.65,Wunderground v.1.15,2013-08-04 02:25:00,
2013-08-03 21:30:00,66.7,58.1,30.10,North,360,0.0,0.0,74,0.00,,,0.65,Wunderground v.1.15,2013-08-04 02:30:00,
2013-08-03 21:40:00,66.2,58.0,30.10,North,360,0.0,0.0,75,0.00,,,0.65,Wunderground v.1.15,2013-08-04 02:40:00,
2013-08-03 21:45:00,65.9,58.1,30.10,North,360,0.0,0.0,76,0.00,,,0.65,Wunderground v.1.15,2013-08-04 02:45:00,
2013-08-03 21:55:00,65.6,58.2,30.11,North,360,0.0,0.0,77,0.00,,,0.65,Wunderground v.1.15,2013-08-04 02:55:00,
2013-08-03 22:00:00,65.3,58.3,30.11,North,360,0.0,0.0,78,0.00,,,0.65,Wunderground v.1.15,2013-08-04 03:00:00,
2013-08-03 22:05:00,65.2,58.5,30.11,North,360,0.0,0.0,79,0.00,,,0.65,Wunderground v.1.15,2013-08-04 03:05:00,
2013-08-03 22:15:00,64.8,58.5,30.12,North,360,0.0,0.0,80,0.00,,,0.65,Wunderground v.1.15,2013-08-04 03:15:00,
2013-08-03 22:20:00,64.6,58.3,30.12,North,360,0.0,0.0,80,0.00,,,0.65,Wunderground v.1.15,2013-08-04 03:20:00,
2013-08-03 22:25:00,64.5,58.2,30.12,North,360,0.0,0.0,80,0.00,,,0.65,Wunderground v.1.15,2013-08-04 03:25:00,
2013-08-03 22:35:00,64.1,57.8,30.12,North,360,0.0,0.0,80,0.00,,,0.65,Wunderground v.1.15,2013-08-04 03:35:00,
2013-08-03 22:40:00,63.9,57.6,30.12,North,360,0.0,0.0,80,0.00,,,0.65,Wunderground v.1.15,2013-08-04 03:40:00,
2013-08-03 22:50:00,63.6,57.7,30.12,North,360,0.0,0.0,81,0.00,,,0.65,Wunderground v.1.15,2013-08-04 03:50:00,
2013-08-03 22:55:00,63.4,57.5,30.13,North,360,0.0,0.0,81,0.00,,,0.65,Wunderground v.1.15,2013-08-04 03:55:00,
2013-08-03 23:00:00,63.2,57.3,30.13,North,360,0.0,0.0,81,0.00,,,0.65,Wunderground v.1.15,2013-08-04 04:00:00,
2013-08-03 23:05:00,63.1,57.5,30.13,North,360,0.0,0.0,82,0.00,,,0.65,Wunderground v.1.15,2013-08-04 04:05:00,
2013-08-03 23:10:00,62.9,57.3,30.12,North,360,0.0,0.0,82,0.00,,,0.65,Wunderground v.1.15,2013-08-04 04:10:00,
2013-08-03 23:15:00,62.7,57.1,30.13,North,360,0.0,0.0,82,0.00,,,0.65,Wunderground v.1.15,2013-08-04 04:15:00,
2013-08-03 23:20:00,62.5,56.9,30.13,North,360,0.0,0.0,82,0.00,,,0.65,Wunderground v.1.15,2013-08-04 04:20:00,
2013-08-03 23:30:00,62.2,57.0,30.13,North,360,0.0,0.0,83,0.00,,,0.65,Wunderground v.1.15,2013-08-04 04:30:00,
2013-08-03 23:35:00,62.1,56.5,30.13,North,360,0.0,0.0,82,0.00,,,0.65,Wunderground v.1.15,2013-08-04 04:35:00,
2013-08-03 23:45:00,61.7,56.5,30.13,North,360,0.0,0.0,83,0.00,,,0.65,Wunderground v.1.15,2013-08-04 04:45:00,
2013-08-03 23:50:00,61.5,56.3,30.13,North,360,0.0,0.0,83,0.00,,,0.65,Wunderground v.1.15,2013-08-04 04:50:00,
2013-08-03 23:54:00,61.3,56.4,30.13,North,360,0.0,0.0,84,0.00,,,0.65,Wunderground v.1.15,2013-08-04 04:54:00,